Miscellaneous Local Product
Issued by NWS Hastings, NE

Home | Current Version | Previous Version | Graphics & Text | Print | Product List | Glossary On
Versions: 1 2 3 4 5 6 7 8 9 10 11 12 13 14 15 16 17 18 19 20 21 22 23 24 25 26 27 28 29 30 31 32 33 34 35 36 37 38 39 40 41 42 43 44 45 46 47 48 49 50
954
AXUS43 KGID 191202
MISGRI

GID CWA HOURLY WEATHER ROUNDUP
NATIONAL WEATHER SERVICE HASTINGS NE
700 AM CDT THU OCT 19 2017

NOTE: "FAIR" INDICATES FEW OR NO CLOUDS BELOW 12,000 FEET WITH NO
SIGNIFICANT WEATHER AND/OR OBSTRUCTIONS TO VISIBILITY.

...SOUTH CENTRAL NEBRASKA...

CITY           SKY/WX    TMP DP  RH WIND       PRES   REMARKS
GRAND ISLAND   CLOUDY    40  37  89 CALM      30.06R
HASTINGS       CLOUDY    41  35  79 CALM      30.06R
KEARNEY        CLOUDY    38  34  85 NW5       30.06R WCI  34
ORD            CLOUDY    33  29  85 CALM      30.05R
YORK           CLEAR     39  39 100 CALM      30.06S
AURORA         CLOUDY    40  36  86 CALM      30.06R
LEXINGTON      CLOUDY    35  32  88 W6        30.06R WCI  30
HOLDREGE       CLOUDY    36  34  94 N5        30.05R WCI  32
HEBRON         CLEAR     40  38  93 CALM      30.05S

...NEBRASKA PANHANDLE...

CITY           SKY/WX    TMP DP  RH WIND       PRES   REMARKS
CHADRON        CLOUDY    52  28  39 SW12      29.93S
ALLIANCE       CLOUDY    37  31  78 S9        30.00F WCI  30
SCOTTSBLUFF    CLOUDY    37  30  75 E5        30.02S WCI  33
SIDNEY         CLOUDY    37  30  75 S9        30.05F WCI  30

...WESTERN AND NORTH CENTRAL NEBRASKA...

CITY           SKY/WX    TMP DP  RH WIND       PRES   REMARKS
VALENTINE      CLOUDY    45  34  65 SW8       29.98F
AINSWORTH      CLOUDY    44  36  72 S7        30.01S
ONEILL         CLOUDY    40  36  83 SW5       30.03S
BROKEN BOW     CLOUDY    33  30  88 CALM      30.04S
IMPERIAL       CLOUDY    39  32  76 W3        30.07S
NORTH PLATTE   CLOUDY    32  30  92 NW6       30.06S WCI  26
MCCOOK         CLOUDY    37  34  89 W3        30.06S

...EASTERN NEBRASKA...

CITY           SKY/WX    TMP DP  RH WIND       PRES   REMARKS
NORFOLK        CLOUDY    37  35  92 CALM      30.05S
SO SIOUX CITY  CLOUDY    37  36  96 SE5       30.06F WCI  33
TEKAMAH        CLOUDY    39  37  92 NW3       30.06S
COLUMBUS       CLEAR     36  35  96 N3        30.06S
ALBION         CLOUDY    35  33  93 CALM      30.05S
OMAHA EPPLEY   PTCLDY    43  39  86 CALM      30.07R
OFFUTT AFB     CLEAR     42  41  96 CALM      30.06R
MILLARD        CLEAR     46  45  96 CALM      30.07R
LINCOLN        CLEAR     43  40  89 N3        30.07S
NEBRASKA CITY  CLEAR     49  49 100 CALM      30.07R
BEATRICE       CLEAR     43  43  97 CALM      30.05S
FALLS CITY     CLEAR     44  43  96 SE6       30.06R

...NORTHERN KANSAS...

CITY           SKY/WX    TMP DP  RH WIND       PRES   REMARKS
GOODLAND       CLOUDY    37  33  85 W6        30.07S WCI  32
HILL CITY      CLEAR     39  36  89 W5        30.06S
NORTON         SUNNY     36  30  80 SW3       30.05S
PHILLIPSBURG   CLEAR     39  37  93 NW7       30.05S WCI  34
HAYS           CLEAR     41  37  86 NW5       30.05F
RUSSELL        CLEAR     42  40  92 CALM      30.03S
CONCORDIA      CLEAR     43  43 100 SE6       30.03F
SALINA         CLEAR     50  47  89 S7        30.05S
TOPEKA         CLEAR     48  48 100 CALM      30.08R FOG



USA.gov is the U.S. government's official web portal to all federal, state and local government web resources and services.